MAS125 WMKK-YPPH

Flight info

Callsign MAS125
Flight time N/A
Altitude 33000
Route MITOS2B MITOS M630 BOBAG P501 POSOG B469 BIDAK/N0466F350 B469 CAR/N0457F370 B469 TOPIR/N0457F380 L514 AVPAL Q38 JULIM
Aircraft B738/M-SDE2E3FGHIRWXY/LB1

Departure

Time N/A
Airport Kuala Lumpur International Airport (WMKK)

Arrival

Time 2026-04-28 04:39
Airport Perth International Airport (YPPH)
Time Latitude Longitude Altitude Speed Heading
2026-04-28 03:42 -25.70857 114.30493 34942 ft 500 kts 151°
2026-04-28 03:42 -25.73711 114.32695 34940 ft 501 kts 151°
2026-04-28 03:42 -25.79395 114.37086 34943 ft 499 kts 151°
2026-04-28 03:43 -25.85105 114.41502 34944 ft 500 kts 151°
2026-04-28 03:43 -25.90865 114.45958 34943 ft 502 kts 151°
2026-04-28 03:44 -25.96619 114.50419 34946 ft 503 kts 151°
2026-04-28 03:44 -26.02372 114.54885 34952 ft 501 kts 151°
2026-04-28 03:45 -26.08092 114.59328 34947 ft 504 kts 151°
2026-04-28 03:45 -26.13872 114.63824 34951 ft 503 kts 150°
2026-04-28 03:46 -26.19635 114.68312 34958 ft 504 kts 150°
2026-04-28 03:46 -26.25432 114.72830 34964 ft 506 kts 150°
2026-04-28 03:47 -26.31218 114.77350 34965 ft 504 kts 150°
2026-04-28 03:47 -26.36966 114.81844 34964 ft 505 kts 150°
2026-04-28 03:48 -26.42720 114.86348 34968 ft 506 kts 150°
2026-04-28 03:48 -26.48477 114.90859 34965 ft 505 kts 149°
2026-04-28 03:49 -26.54270 114.95404 34962 ft 506 kts 149°
2026-04-28 03:49 -26.60032 114.99929 34954 ft 507 kts 149°
2026-04-28 03:50 -26.65781 115.04451 34955 ft 507 kts 149°
2026-04-28 03:50 -26.71565 115.09007 34954 ft 507 kts 149°
2026-04-28 03:51 -26.77323 115.13549 34963 ft 507 kts 149°
2026-04-28 03:51 -26.83087 115.18100 34963 ft 507 kts 149°
2026-04-28 03:52 -26.88893 115.22688 34967 ft 508 kts 149°
2026-04-28 03:52 -26.94699 115.27284 34968 ft 509 kts 149°
2026-04-28 03:53 -27.00501 115.31883 34971 ft 509 kts 149°
2026-04-28 03:53 -27.06267 115.36459 34969 ft 510 kts 149°
2026-04-28 03:54 -27.12091 115.41088 34976 ft 509 kts 149°
2026-04-28 03:54 -27.17895 115.45709 34978 ft 510 kts 149°
2026-04-28 03:55 -27.23687 115.50321 34978 ft 510 kts 148°
2026-04-28 03:55 -27.29463 115.54928 34982 ft 511 kts 148°
2026-04-28 03:56 -27.35299 115.59572 34979 ft 511 kts 149°
2026-04-28 03:56 -27.41326 115.63779 34985 ft 507 kts 156°
2026-04-28 03:57 -27.47561 115.67465 34983 ft 507 kts 158°
2026-04-28 03:57 -27.53897 115.71019 34978 ft 505 kts 158°
2026-04-28 03:58 -27.60210 115.74556 34981 ft 507 kts 158°
2026-04-28 03:58 -27.66539 115.78142 34985 ft 506 kts 158°
2026-04-28 03:59 -27.72841 115.81750 34987 ft 507 kts 157°
2026-04-28 03:59 -27.79162 115.85387 34989 ft 507 kts 157°
2026-04-28 04:00 -27.85491 115.89040 34989 ft 508 kts 157°
2026-04-28 04:00 -27.91804 115.92689 34992 ft 507 kts 157°
2026-04-28 04:01 -27.98118 115.96343 34997 ft 508 kts 157°
2026-04-28 04:01 -28.04429 115.99999 34999 ft 508 kts 157°
2026-04-28 04:02 -28.10730 116.03653 35001 ft 508 kts 157°
2026-04-28 04:02 -28.17037 116.07316 35006 ft 508 kts 157°
2026-04-28 04:03 -28.23349 116.10988 34998 ft 507 kts 157°
2026-04-28 04:03 -28.29662 116.14665 35013 ft 507 kts 156°
2026-04-28 04:04 -28.35921 116.18315 35010 ft 507 kts 157°
2026-04-28 04:04 -28.42220 116.21992 35016 ft 507 kts 157°
2026-04-28 04:05 -28.48507 116.25667 35009 ft 508 kts 157°
2026-04-28 04:05 -28.54828 116.29368 35008 ft 506 kts 157°
2026-04-28 04:06 -28.61123 116.33057 35010 ft 507 kts 157°
2026-04-28 04:06 -28.67425 116.36758 35011 ft 507 kts 157°
2026-04-28 04:07 -28.73663 116.40425 35007 ft 508 kts 157°
2026-04-28 04:07 -28.79955 116.44128 35008 ft 507 kts 157°
2026-04-28 04:08 -28.86243 116.47834 35008 ft 508 kts 156°
2026-04-28 04:08 -28.92498 116.51527 35010 ft 507 kts 156°
2026-04-28 04:09 -28.98765 116.55231 35014 ft 506 kts 157°
2026-04-28 04:09 -29.05021 116.58934 35013 ft 506 kts 156°
2026-04-28 04:10 -29.11281 116.62643 35020 ft 507 kts 156°
2026-04-28 04:10 -29.17682 116.65937 35012 ft 501 kts 167°
2026-04-28 04:11 -29.21100 116.66753 35023 ft 491 kts 180°
2026-04-28 04:11 -29.24463 116.66979 35026 ft 487 kts 185°
2026-04-28 04:11 -29.31193 116.66861 35025 ft 481 kts 189°
2026-04-28 04:12 -29.37907 116.66537 35027 ft 483 kts 189°
2026-04-28 04:12 -29.44612 116.66244 35029 ft 482 kts 188°
2026-04-28 04:13 -29.51339 116.66007 35028 ft 483 kts 188°
2026-04-28 04:13 -29.58081 116.65804 35033 ft 483 kts 188°
2026-04-28 04:14 -29.64810 116.65622 35033 ft 482 kts 187°
2026-04-28 04:14 -29.71516 116.65444 35032 ft 483 kts 187°
2026-04-28 04:15 -29.78228 116.65266 35033 ft 482 kts 187°
2026-04-28 04:16 -29.88269 116.64997 35034 ft 482 kts 187°
2026-04-28 04:16 -29.95017 116.64812 34884 ft 482 kts 187°
2026-04-28 04:16 -29.98370 116.64723 35008 ft 484 kts 187°
2026-04-28 04:17 -30.01748 116.64629 34975 ft 487 kts 187°
2026-04-28 04:17 -30.05124 116.64539 34798 ft 482 kts 187°
2026-04-28 04:17 -30.08442 116.64453 34364 ft 480 kts 187°
2026-04-28 04:17 -30.11793 116.64364 33727 ft 483 kts 187°
2026-04-28 04:18 -30.15162 116.64271 32929 ft 488 kts 186°
2026-04-28 04:18 -30.18551 116.64177 32246 ft 487 kts 186°
2026-04-28 04:18 -30.21943 116.64086 31684 ft 483 kts 186°
2026-04-28 04:18 -30.25268 116.63998 31127 ft 480 kts 186°
2026-04-28 04:19 -30.28622 116.63908 30550 ft 476 kts 186°
2026-04-28 04:19 -30.31932 116.63821 29975 ft 473 kts 185°
2026-04-28 04:19 -30.35169 116.63735 29375 ft 469 kts 185°
2026-04-28 04:19 -30.38435 116.63648 28801 ft 464 kts 185°
2026-04-28 04:20 -30.41622 116.63562 28246 ft 459 kts 185°
2026-04-28 04:20 -30.44789 116.63476 27690 ft 454 kts 185°
2026-04-28 04:20 -30.47962 116.63389 27136 ft 449 kts 185°
2026-04-28 04:20 -30.51078 116.63291 26581 ft 444 kts 186°
2026-04-28 04:21 -30.54124 116.63020 26027 ft 438 kts 191°
2026-04-28 04:21 -30.57096 116.62420 25491 ft 430 kts 196°
2026-04-28 04:21 -30.59953 116.61546 24965 ft 424 kts 200°
2026-04-28 04:21 -30.62779 116.60519 24428 ft 418 kts 202°
2026-04-28 04:22 -30.65493 116.59454 23916 ft 413 kts 203°
2026-04-28 04:22 -30.68218 116.58353 23396 ft 409 kts 203°
2026-04-28 04:22 -30.70867 116.57277 22891 ft 405 kts 203°
2026-04-28 04:22 -30.73534 116.56198 22380 ft 402 kts 203°
2026-04-28 04:23 -30.76154 116.55145 21872 ft 399 kts 203°
2026-04-28 04:23 -30.78773 116.54102 21362 ft 396 kts 203°
2026-04-28 04:23 -30.81377 116.53072 20852 ft 394 kts 203°
2026-04-28 04:23 -30.83964 116.52051 20335 ft 391 kts 203°
2026-04-28 04:24 -30.86524 116.51044 19803 ft 389 kts 203°
2026-04-28 04:24 -30.89083 116.50039 19283 ft 387 kts 203°
2026-04-28 04:24 -30.91619 116.49044 18770 ft 384 kts 203°
2026-04-28 04:24 -30.94159 116.48048 18253 ft 382 kts 203°
2026-04-28 04:25 -30.96671 116.47064 17739 ft 379 kts 203°
2026-04-28 04:25 -30.99151 116.46092 17236 ft 377 kts 203°
2026-04-28 04:25 -31.01617 116.45127 16733 ft 374 kts 203°
2026-04-28 04:25 -31.04088 116.44158 16221 ft 372 kts 203°
2026-04-28 04:26 -31.06549 116.43192 15714 ft 370 kts 203°
2026-04-28 04:26 -31.08971 116.42242 15213 ft 367 kts 203°
2026-04-28 04:26 -31.11389 116.41293 14709 ft 364 kts 203°
2026-04-28 04:26 -31.13781 116.40355 14214 ft 362 kts 203°
2026-04-28 04:27 -31.16169 116.39418 13714 ft 359 kts 203°
2026-04-28 04:27 -31.18517 116.38495 13213 ft 356 kts 203°
2026-04-28 04:27 -31.20851 116.37575 12731 ft 353 kts 202°
2026-04-28 04:27 -31.23190 116.36653 12244 ft 351 kts 202°
2026-04-28 04:28 -31.25478 116.35752 11768 ft 348 kts 202°
2026-04-28 04:28 -31.27759 116.34854 11289 ft 345 kts 202°
2026-04-28 04:28 -31.30046 116.33955 10805 ft 342 kts 202°
2026-04-28 04:28 -31.32287 116.33071 10328 ft 339 kts 202°
2026-04-28 04:29 -31.34509 116.32197 10151 ft 327 kts 202°
2026-04-28 04:29 -31.36623 116.31367 10044 ft 313 kts 202°
2026-04-28 04:29 -31.38658 116.30565 9745 ft 308 kts 202°
2026-04-28 04:29 -31.40679 116.29761 9311 ft 307 kts 203°
2026-04-28 04:30 -31.42629 116.28792 8917 ft 302 kts 210°
2026-04-28 04:30 -31.44489 116.27653 8537 ft 299 kts 212°
2026-04-28 04:30 -31.46291 116.26475 8162 ft 297 kts 212°
2026-04-28 04:30 -31.48076 116.25298 7790 ft 295 kts 212°
2026-04-28 04:31 -31.49862 116.24133 7418 ft 293 kts 211°
2026-04-28 04:31 -31.51657 116.22975 7043 ft 291 kts 211°
2026-04-28 04:31 -31.53421 116.21843 6678 ft 289 kts 210°
2026-04-28 04:31 -31.55174 116.20719 6313 ft 288 kts 210°
2026-04-28 04:32 -31.56936 116.19588 5951 ft 286 kts 210°
2026-04-28 04:32 -31.58661 116.18478 5593 ft 285 kts 209°
2026-04-28 04:32 -31.60411 116.17354 5224 ft 283 kts 209°
2026-04-28 04:32 -31.62118 116.16258 4868 ft 282 kts 209°
2026-04-28 04:33 -31.63824 116.15162 4603 ft 276 kts 209°
2026-04-28 04:33 -31.65494 116.14088 4407 ft 269 kts 209°
2026-04-28 04:33 -31.67126 116.13038 4036 ft 269 kts 208°
2026-04-28 04:33 -31.68763 116.11983 3709 ft 267 kts 208°
2026-04-28 04:34 -31.70393 116.10937 3386 ft 266 kts 208°
2026-04-28 04:34 -31.72027 116.09888 3056 ft 264 kts 208°
2026-04-28 04:34 -31.73622 116.08862 2878 ft 256 kts 207°
2026-04-28 04:34 -31.75106 116.07816 2807 ft 245 kts 215°
2026-04-28 04:35 -31.76299 116.06454 2745 ft 234 kts 231°
2026-04-28 04:35 -31.77231 116.04921 2694 ft 221 kts 235°
2026-04-28 04:35 -31.78081 116.03480 2605 ft 210 kts 233°
2026-04-28 04:35 -31.78924 116.02134 2538 ft 205 kts 232°
2026-04-28 04:36 -31.79867 116.00867 2486 ft 203 kts 215°
2026-04-28 04:36 -31.81139 116.00179 2425 ft 202 kts 192°
2026-04-28 04:36 -31.82507 115.99825 2145 ft 202 kts 188°
2026-04-28 04:36 -31.83882 115.99459 1866 ft 201 kts 190°
2026-04-28 04:37 -31.85183 115.99058 1617 ft 186 kts 191°
2026-04-28 04:37 -31.86406 115.98704 1368 ft 170 kts 189°
2026-04-28 04:37 -31.87523 115.98390 1139 ft 162 kts 189°
2026-04-28 04:37 -31.88574 115.98081 933 ft 155 kts 189°
2026-04-28 04:38 -31.89627 115.97770 725 ft 153 kts 189°
2026-04-28 04:38 -31.90659 115.97468 527 ft 150 kts 187°
2026-04-28 04:38 -31.91669 115.97193 347 ft 150 kts 192°
2026-04-28 04:38 -31.92694 115.96896 150 ft 151 kts 189°
2026-04-28 04:39 -31.93674 115.96613 66 ft 127 kts 192°
2026-04-28 04:39 -31.94290 115.96433 73 ft 58 kts 194°
2026-04-28 04:39 -31.94541 115.96356 74 ft 25 kts 193°
2026-04-28 04:39 -31.94714 115.96310 74 ft 25 kts 193°
2026-04-28 04:40 -31.94880 115.96259 75 ft 24 kts 193°
2026-04-28 04:40 -31.95008 115.96227 75 ft 10 kts 180°
2026-04-28 04:40 -31.95066 115.96262 76 ft 8 kts 135°
2026-04-28 04:40 -31.95089 115.96314 77 ft 6 kts 102°
2026-04-28 04:41 -31.95098 115.96355 78 ft 3 kts 104°
2026-04-28 04:41 -31.95103 115.96376 78 ft 1 kts 104°
2026-04-28 04:41 -31.95107 115.96396 79 ft 3 kts 104°
2026-04-28 04:41 -31.95113 115.96421 79 ft 5 kts 104°
2026-04-28 04:42 -31.95125 115.96478 80 ft 6 kts 104°
2026-04-28 04:42 -31.95114 115.96527 80 ft 6 kts 52°
2026-04-28 04:42 -31.95039 115.96564 79 ft 18 kts 14°
2026-04-28 04:42 -31.94901 115.96606 79 ft 20 kts 16°
2026-04-28 04:43 -31.94755 115.96647 76 ft 22 kts 14°
2026-04-28 04:43 -31.94584 115.96697 75 ft 28 kts 14°
2026-04-28 04:43 -31.94394 115.96751 74 ft 28 kts 16°
2026-04-28 04:43 -31.94201 115.96807 72 ft 28 kts 14°
2026-04-28 04:44 -31.94019 115.96860 72 ft 22 kts 13°
2026-04-28 04:44 -31.93923 115.96899 70 ft 10 kts 50°
2026-04-28 04:44 -31.93920 115.96978 70 ft 9 kts 103°
2026-04-28 04:44 -31.93940 115.97073 71 ft 13 kts 104°
2026-04-28 04:45 -31.93960 115.97170 74 ft 10 kts 104°
2026-04-28 04:45 -31.93949 115.97244 75 ft 8 kts 63°
2026-04-28 04:45 -31.93924 115.97302 76 ft 7 kts 63°
2026-04-28 04:45 -31.93910 115.97364 77 ft 7 kts 86°
2026-04-28 04:46 -31.93912 115.97410 78 ft 3 kts 92°
2026-04-28 04:46 -31.93921 115.97432 78 ft 4 kts 147°
2026-04-28 04:46 -31.93962 115.97441 79 ft 4 kts 172°
2026-04-28 04:46 -31.93980 115.97444 80 ft 0 kts 172°
2026-04-28 04:47 -31.93995 115.97447 80 ft 2 kts 172°
2026-04-28 04:47 -31.94000 115.97448 80 ft 0 kts 172°
2026-04-28 04:47 -31.94001 115.97448 80 ft 0 kts 172°